Location: Newark
(45.5000°N, 11.4167°E)
Time: 18:55:27
(UTC+00:00)

Vanguard 2 - Pass Details

Date: 23 August 2019
Orbit: 554 x 2937 km, 32.9° (Epoch: 22 September)

Event Time Altitude Azimuth Distance (km) Brightness Sun altitude
Rises 11:48:24 0° 224° (SW) 3,298 11.2 55.3°
Reaches altitude 10° 11:50:54 10° 210° (SSW) 2,602 11.0 55.2°
Maximum altitude 11:56:00 26° 155° (SSE) 2,169 10.7 54.9°
Drops below altitude 10° 12:03:22 10° 105° (ESE) 3,890 11.2 54.5°
Sets 12:08:06 0° 95° (E) 5,341 11.7 54.2°
